Location: Владивосток
(43.1151°N, 131.8856°E)
Time: 10:58:07
(UTC+10:00)

NOAA 18 - Pass Details

Date: 28 April 2024
Orbit: 837 x 859 km, 98.9° (Epoch: 29 May)

Event Time Altitude Azimuth Distance (km) Brightness Sun altitude
Exits shadow 22:21:17 28° 90° (E) 1,545 6.2 -20.7°
Maximum altitude 22:22:33 32° 65° (ENE) 1,450 6.2 -20.9°
Drops below altitude 10° 22:27:22 10° 5° (N) 2,500 8.2 -21.5°
Sets 22:29:58 0° 355° (N) 3,438 9.2 -21.8°
